Regional Weather Roundup
Issued by NWS

Home | Current Version | Previous Version | Text Only | Print | Product List | Glossary On
Versions: 1 2 3 4 5 6 7 8 9 10 11 12 13 14 15 16 17 18 19 20 21 22 23 24 25 26 27 28 29 30 31 32 33 34 35 36 37 38 39 40 41 42 43 44 45 46 47 48 49 50
000
ASUS43 KDTX 110610
RWRMI
MICHIGAN HOURLY REGIONAL WEATHER ROUNDUP
NATIONAL WEATHER SERVICE DETROIT/PONTIAC MI
100 AM EST SUN DEC 11 2016

NOTE: "FAIR" INDICATES FEW OR NO CLOUDS BELOW 12,000 FEET WITH NO
SIGNIFICANT WEATHER AND/OR OBSTRUCTION TO VISIBILITY.

MIZ047>049-052>055-059>063-066>070-074>076-081>083-110700-
SOUTHEAST LOWER MICHIGAN

CITY           SKY/WX    TMP DP  RH WIND       PRES   REMARKS
ADRIAN         LGT SNOW  22  21  96 S7        30.37F FOG     WCI  13
6HR MIN TEMP:  22; 6HR MAX TEMP:  24; 6HR PCP: TRACE;

ALMA           LGT SNOW  22  20  92 CALM      30.35S
ANN ARBOR      LGT SNOW  22  19  89 S6        30.37F FOG     WCI  14
BAD AXE        CLOUDY    18  12  77 SW3       30.36R
CARO           CLOUDY    20  17  89 CALM      30.36S
DETROIT CITY   CLOUDY    25  15  66 W7        30.39F WCI  17
6HR MIN TEMP:  25; 6HR MAX TEMP:  25;

DETROIT        CLOUDY    25  17  72 S6        30.39F WCI  18
6HR MIN TEMP:  24; 6HR MAX TEMP:  26;

FLINT          CLOUDY    23  17  78 SW6       30.36S WCI  16
6HR MIN TEMP:  19; 6HR MAX TEMP:  23;

GROSSE ILE     CLOUDY    26  16  66 SW7       30.39S WCI  18
6HR MIN TEMP:  25; 6HR MAX TEMP:  26;

HILLSDALE      LGT SNOW  21  19  93 S3        30.33S
HOWELL         LGT SNOW  22  17  79 SW7       30.35S WCI  14

CITY           SKY/WX    TMP DP  RH WIND       PRES   REMARKS
JACKSON        LGT SNOW  22  16  78 S7        30.34F WCI  13
6HR MIN TEMP:  20; 6HR MAX TEMP:  22; 6HR PCP: TRACE;

LAMBERTVILLE   LGT SNOW  26  21  83 S3        30.39F
6HR MIN TEMP:  26; 6HR MAX TEMP:  28;

LANSING        LGT SNOW  22  18  85 S6        30.35F FOG     WCI  14
6HR MIN TEMP:  22; 6HR MAX TEMP:  23; 6HR PCP: TRACE;

LAPEER         NOT AVBL
MASON          LGT SNOW  22  19  91 S3        30.34F
MONROE         CLOUDY    26  18  73 SW6       30.38F WCI  19
MT. CLEMENS    CLOUDY    25  16  70 SW5       30.36F WCI  19
6HR MIN TEMP:  24; 6HR MAX TEMP:  25;

PONTIAC        CLOUDY    23  16  74 S5        30.34F WCI  17
6HR MIN TEMP:  21; 6HR MAX TEMP:  23; 6HR PCP: TRACE;

PORT HOPE        N/A     20  12  71 VRB3      30.34R
6HR MIN TEMP:  20; 6HR MAX TEMP:  24;

PORT HURON     PTCLDY    23  19  86 CALM      30.37S
TRI CITIES     CLOUDY    22  16  78 S5        30.37S WCI  16
6HR MIN TEMP:  18; 6HR MAX TEMP:  22;

MIDLAND        CLOUDY    22  13  69 CALM      30.36S
6HR MIN TEMP:  16; 6HR MAX TEMP:  22;

TROY           CLOUDY    25  15  63 SW6       30.39S WCI  18
SAGINAW HB     CLOUDY    23  18  80 CALM      30.36S
$$
MIZ043>046-050>051-056>058-064>065-071>073-077>080-110700-
SOUTHWEST LOWER MICHIGAN

CITY           SKY/WX    TMP DP  RH WIND       PRES   REMARKS
BATTLE CREEK   LGT SNOW  22  19  89 S8        30.34F FOG     WCI  12
6HR MIN TEMP:  21; 6HR MAX TEMP:  23; 6HR PCP: TRACE;

BENTON HARBOR  LGT SNOW  23  19  85 SE7       30.33F FOG     WCI  15
6HR MIN TEMP:  23; 6HR MAX TEMP:  24; 6HR PCP:  0.01;

BIG RAPIDS     LGT SNOW  19  17  90 CALM      30.30F
6HR MIN TEMP:  16; 6HR MAX TEMP:  19;

COLDWATER      LGT SNOW  23  21  93 SE5       30.33F WCI  16
6HR MIN TEMP:  22; 6HR MAX TEMP:  24;

FREMONT        LGT SNOW  21  19  94 E3        30.30F
HOLLAND        FLURRIES  23  19  85 S10       30.33R WCI  12
6HR MIN TEMP:  22; 6HR MAX TEMP:  25; 6HR PCP:  0.04;

GRAND RAPIDS   LGT SNOW  22  17  81 S12       30.34R WCI  10
6HR MIN TEMP:  21; 6HR MAX TEMP:  23; 6HR PCP:  0.01;

IONIA          LGT SNOW  22  19  90 S7        30.32F WCI  13
6HR MIN TEMP:  21; 6HR MAX TEMP:  22;

KALAMAZOO      LGT SNOW  23  18  81 S6        30.33F WCI  16
6HR MIN TEMP:  23; 6HR MAX TEMP:  23; 6HR PCP: TRACE;

LUDINGTON      LGT SNOW  20  18  94 SE6       30.31F VSB 3/4 WCI  12
6HR MIN TEMP:  20; 6HR MAX TEMP:  24;

MARSHALL       LGT SNOW  22  19  89 S5        30.34S WCI  16
6HR MIN TEMP:  20; 6HR MAX TEMP:  23;

MOUNT PLEASANT LGT SNOW  20  16  84 CALM      30.33F
6HR MIN TEMP:  18; 6HR MAX TEMP:  22;

MUSKEGON       LGT SNOW  23  21  92 SE9       30.31F VSB 3/4 WCI  13
6HR MIN TEMP:  22; 6HR MAX TEMP:  27; 6HR PCP:  0.11;

SOUTH HAVEN    LGT SNOW  22  20  91 SE3       30.33F
$$
MIZ016>042-110700-
NORTHERN LOWER MICHIGAN

CITY           SKY/WX    TMP DP  RH WIND       PRES   REMARKS
ALPENA         CLOUDY    16   8  71 SW6       30.32F WCI   7
6HR MIN TEMP:  15; 6HR MAX TEMP:  18;

BEAVER ISLAND  LGT SNOW  21  19  93 CALM      30.27F
BELLAIRE       CLOUDY    19  14  79 S5        30.31F WCI  13
6HR MIN TEMP:  19; 6HR MAX TEMP:  21;

CADILLAC       LGT SNOW  17  13  84 S5        30.26F WCI  10
CHARLEVOIX     FLURRIES  20  16  84 S8        30.32F WCI  11
FRANKFORT      LGT SNOW  21  17  84 SE7       30.30F WCI  12
GAYLORD        CLOUDY    12   8  84 SW5       30.25F WCI   4
6HR MIN TEMP:  12; 6HR MAX TEMP:  14;

GRAYLING       CLOUDY    15  12  86 CALM      30.29F
HARBOR SPRINGS CLOUDY    19  14  81 CALM      30.28F
HOUGHTON LAKE  MOCLDY    16  12  84 S5        30.29F WCI   9
6HR MIN TEMP:  14; 6HR MAX TEMP:  17; 6HR PCP: TRACE;

MANISTEE       LGT SNOW  19  16  88 SE5       30.30F FOG     WCI  12
OSCODA         PTCLDY    17  11  77 MISG      30.33F
6HR MIN TEMP:  15; 6HR MAX TEMP:  22;

PELLSTON       LGT SNOW  18  14  84 SE6       30.28F FOG     WCI  10
6HR MIN TEMP:  18; 6HR MAX TEMP:  21; 6HR PCP:  0.13;

ROGERS CITY    CLOUDY    17  10  73 SW9       30.31F WCI   5
TRAVERSE CITY  CLOUDY    20  13  74 SE5       30.30F WCI  13
6HR MIN TEMP:  20; 6HR MAX TEMP:  20; 6HR PCP: TRACE;

$$
MIZ007>008-015-110700-
EASTERN UPPER MICHIGAN

CITY           SKY/WX    TMP DP  RH WIND       PRES   REMARKS
KINROSS        CLOUDY    11   8  88 CALM      30.26F
6HR MIN TEMP:   8; 6HR MAX TEMP:  12;

MACKINAC ISLAN CLOUDY    19  15  84 CALM      30.27F
NEWBERRY       PTCLDY    10   5  77 W6        30.24F WCI   1
6HR MIN TEMP:   6; 6HR MAX TEMP:  16;

S. S. MARIE    CLEAR     10   5  80 CALM      30.26F
6HR MIN TEMP:  10; 6HR MAX TEMP:  16;

MUNISING         N/A      3  -1  83 S10       30.28F WCI -12
6HR MIN TEMP:   3; 6HR MAX TEMP:  16;

$$
MIZ004>006-011>014-085-110700-
CENTRAL UPPER MICHIGAN

CITY           SKY/WX    TMP DP  RH WIND       PRES   REMARKS
MANISTIQUE     PTCLDY     6   3  86 W3        30.28S
6HR MIN TEMP:   5; 6HR MAX TEMP:  12;

ESCANABA       CLOUDY    11   7  84 CALM      30.30F
6HR MIN TEMP:   9; 6HR MAX TEMP:  12;

MENOMINEE      FLURRIES  15   4  61 CALM      30.31F
6HR MIN TEMP:  14; 6HR MAX TEMP:  15;

SAWYER-GWINN   PTCLDY     2  -2  83 CALM      30.23S
6HR MIN TEMP:   1; 6HR MAX TEMP:   7;

$$
MIZ001>003-009>011-084-110700-
WESTERN UPPER MICHIGAN

CITY           SKY/WX    TMP DP  RH WIND       PRES   REMARKS
IRON MOUNTAIN  CLOUDY     8   2  76 CALM      30.23F
6HR MIN TEMP:   4; 6HR MAX TEMP:   9;

HOUGHTON       CLOUDY     9   0  67 W5        30.22F WCI   1
6HR MIN TEMP:   8; 6HR MAX TEMP:  12; 6HR PCP: TRACE;

COPPER HARBOR    N/A     13   9  84 VRB5      30.26F WCI   5
6HR MIN TEMP:  13; 6HR MAX TEMP:  16;

IRONWOOD       PTCLDY     0  -4  83 CALM      30.23F
6HR MIN TEMP:  -7; 6HR MAX TEMP:   0; 6HR PCP: TRACE;

$$

ABBREVIATIONS USED IN REMARKS
   TC - TEMPERATURE IN CELSIUS
  WCI - WIND CHILL INDEX
   HX - HEAT INDEX
  VSB - VISIBILITY





USA.gov is the U.S. government's official web portal to all federal, state and local government web resources and services.